Regional Weather Roundup
Issued by NWS Sioux Falls, SD

Home | Current Version | Previous Version | Text Only | Print | Product List | Glossary On
Versions: 1 2 3 4 5 6 7 8 9 10 11 12 13 14 15 16 17 18 19 20 21 22 23 24 25 26 27 28 29 30 31 32 33 34 35 36 37 38 39 40 41 42 43 44 45 46 47 48 49 50
000
ASUS43 KFSD 072310
RWRFSD

WEATHER ROUNDUP FOR SE SOUTH DAKOTA/SW MINNESOTA/NW IOWA
NATIONAL WEATHER SERVICE SIOUX FALLS SD
500 PM CST WED DEC 07 2016

NOTE: "FAIR" INDICATES FEW OR NO CLOUDS BELOW 12,000 FEET WITH NO
SIGNIFICANT WEATHER AND OR OBSTRUCTIONS TO VISIBILITY.


SDZ038>040-050-052>070-080000-
SOUTHEAST SOUTH DAKOTA

CITY           SKY/WX    TMP DP  RH WIND       PRES   REMARKS
BROOKINGS      LGT SNOW  10   7  85 NW18G25   30.22R FOG     WCI  -8
CHAMBERLAIN    CLEAR     14   4  64 NW26      30.38R WCI  -5
HURON          CLOUDY    13   4  67 NW22G32   30.34R WCI  -6
MADISON        MOCLDY    10   7  85 NW25G31   30.24R WCI -10
MITCHELL       MOCLDY    16   5  62 NW28G37   30.36R WCI  -4
SIOUX FALLS    PTCLDY    15   5  64 NW26G35   30.26R WCI  -4
WINNER         FAIR      13   1  59 NW24G32   30.39R WCI  -7
YANKTON        CLEAR    N/A N/A N/A W25G31    30.33R
$$

MNZ071-072-080-081-089-090-097-098-080000-
SOUTHWEST MINNESOTA

CITY           SKY/WX    TMP DP  RH WIND       PRES   REMARKS
FAIRMONT       CLEAR     19   9  65 NW23G29   30.18R WCI   2
JACKSON        CLEAR     18   9  68 W20G28    30.18R WCI   1
LUVERNE        CLEAR     16   5  62 NW24G33   30.24R WCI  -3
MARSHALL       PTCLDY    12   3  67 NW31G39   30.20R WCI -10
MONTEVIDEO     CLOUDY    16   7  67 NW16G31   30.20R WCI   0
PIPESTONE      PTCLDY    14   5  67 NW25G33   30.21R WCI  -5
REDWOOD FALLS  CLOUDY    17   5  59 NW25G36   30.18R WCI  -1
TRACY          PTCLDY    15   8  72 NW20G30   30.21R WCI  -2
WINDOM         MOCLDY    16   9  73 W24G33    30.17R WCI  -3
WORTHINGTON    FLURRIES  15   8  73 W25       30.19R WCI  -4
$$

IAZ001>003-012>014-020>022-031-032-NEZ013-014-SDZ071-080000-
NORTHWEST IOWA

CITY           SKY/WX    TMP DP  RH WIND       PRES   REMARKS
CHEROKEE       PTCLDY    19   8  64 W12G21    30.28R WCI   6
DENISON        CLEAR     19   9  63 W16       30.28R WCI   5
ESTHERVILLE    CLEAR     17   9  70 W25G32    30.19R WCI  -1
LE MARS        CLOUDY    19   9  63 NW17G26   30.32R WCI   4
ORANGE CITY    CLEAR     18   9  68 NW26G33   30.25S WCI  -1
SHELDON        PTCLDY    18   7  62 W17G31    30.23R WCI   2
SIOUX CITY     CLEAR     20   6  55 W16       30.34R WCI   6
SPENCER        CLEAR     18   7  62 W30G41    30.22R WCI  -1
STORM LAKE     MOCLDY    18   9  68 W24       30.24R WCI   0
$$

ABBREVIATIONS USED IN REMARKS
   TC - TEMPERATURE IN CELSIUS
  WCI - WIND CHILL INDEX
   HX - HEAT INDEX
  VSB - VISIBILITY





USA.gov is the U.S. government's official web portal to all federal, state and local government web resources and services.